Farmington, NM

1:06 AM MST on February 10, 2016 (GMT -0700)
Four Corners Regional

Weather History for KFMN - December, 2012

Change the Weather History Date:

Friday, December 14, 2012

  Actual Average Record
Temperature  
Mean Temperature 38 °F -  
Max Temperature 43 °F 41 °F 59 °F (2010)
Min Temperature 32 °F 17 °F 7 °F (1978)
Degree Days  
Heating Degree Days 28    
Moisture  
Dew Point 31 °F    
Average Humidity 82    
Maximum Humidity 100    
Minimum Humidity 21    
Precipitation  
Precipitation 0.12 in - - ()
Sea Level Pressure  
Sea Level Pressure 29.75 in    
Wind  
Wind Speed 10 mph (SE)    
Max Wind Speed 20 mph    
Max Gust Speed 31 mph    
Visibility 9 miles    
Events Rain , Snow    
Averages and records for this station are not official NWS values.
T = Trace of Precipitation, MM = Missing Value Source: NWS Daily Summary

Daily Weather History Graph

Daily Weather History Graph

Search for Another Location

Airport or City:

Trip Planner

Search our weather history database for the weather conditions in past years. The results will help you decide how hot, cold, wet, or windy it might be!

Date:

Astronomy

Dec. 14, 2012 Rise Set
Actual Time 7:17 AM MST 4:57 PM MST
Civil Twilight 6:49 AM MST 5:26 PM MST
Nautical Twilight 6:16 AM MST 5:59 PM MST
Astronomical Twilight 5:45 AM MST 6:30 PM MST
Moon 8:26 AM MST (12/14) 6:52 PM MST (12/14)
Length of Visible Light 10h 37m
Length of Day
9h 39m
Waxing Crescent, 3% of the Moon is Illuminated
Dec 14
Waxing Crescent
Dec 19
First Quarter
Dec 28
Full
Jan 4
Last Quarter
Jan 11
New

Hourly Weather History & Observations

Time (MST) Temp. Windchill Dew Point Humidity Pressure Visibility Wind Dir Wind Speed Gust Speed Precip Events Conditions
12:53 AM 42.1 °F 34.9 °F 15.1 °F 34% 29.81 in 10.0 mi East 13.8 mph - N/A   Overcast
1:53 AM 43.0 °F 35.4 °F 16.0 °F 34% 29.78 in 10.0 mi East 16.1 mph - N/A   Overcast
2:53 AM 39.9 °F 32.9 °F 17.1 °F 40% 29.77 in 10.0 mi East 11.5 mph - N/A   Overcast
3:50 AM 39.2 °F 32.0 °F 35.6 °F 87% 29.78 in 6.0 mi ESE 11.5 mph - 0.03 in Rain Rain
3:53 AM 39.9 °F 32.9 °F 36.0 °F 86% 29.73 in 6.0 mi East 11.5 mph - 0.04 in Rain Rain
4:50 AM 37.4 °F 27.8 °F 35.6 °F 93% 29.70 in 10.0 mi ENE 17.3 mph 25.3 mph 0.09 in Rain Light Rain
4:53 AM 37.0 °F 28.1 °F 35.1 °F 93% 29.68 in 10.0 mi ENE 15.0 mph 25.3 mph 0.09 in   Overcast
5:53 AM 37.0 °F 29.8 °F 34.0 °F 89% 29.69 in 10.0 mi East 10.4 mph 24.2 mph 0.00 in Rain Light Rain
6:30 AM 37.4 °F 32.1 °F 33.8 °F 87% 29.71 in 10.0 mi East 6.9 mph - 0.00 in Rain Light Rain
6:53 AM 37.0 °F 29.8 °F 34.0 °F 89% 29.70 in 8.0 mi East 10.4 mph - 0.00 in Rain Light Rain
7:53 AM 37.0 °F 28.9 °F 35.1 °F 93% 29.67 in 10.0 mi East 12.7 mph - 0.00 in   Overcast
8:53 AM 37.9 °F 32.1 °F 35.1 °F 89% 29.66 in 10.0 mi ENE 8.1 mph - N/A   Overcast
9:19 AM 37.4 °F 33.8 °F 35.6 °F 93% 29.70 in 4.0 mi South 4.6 mph - 0.03 in Rain Rain
9:28 AM 37.4 °F 32.1 °F 33.8 °F 87% 29.71 in 2.5 mi Variable 6.9 mph - 0.06 in Rain Heavy Rain
9:45 AM 33.8 °F - 33.8 °F 100% 29.70 in 7.0 mi Calm Calm - 0.12 in Rain Light Rain
9:53 AM 35.1 °F 31.0 °F 34.0 °F 96% 29.69 in 10.0 mi ENE 4.6 mph - 0.13 in Rain Light Rain
10:06 AM 35.6 °F 30.7 °F 33.8 °F 93% 29.68 in 10.0 mi East 5.8 mph - 0.00 in   Overcast
10:53 AM 37.9 °F 35.5 °F 36.0 °F 93% 29.67 in 10.0 mi Variable 3.5 mph - 0.00 in   Overcast
11:53 AM 39.9 °F 30.5 °F 34.0 °F 79% 29.65 in 10.0 mi SSW 19.6 mph 29.9 mph N/A   Overcast
12:49 PM 39.2 °F 31.6 °F 35.6 °F 87% 29.66 in 10.0 mi West 12.7 mph - 0.00 in Rain Light Rain
12:53 PM 37.9 °F 32.1 °F 35.1 °F 89% 29.65 in 9.0 mi West 8.1 mph - 0.00 in Rain Light Rain
1:53 PM 36.0 °F 29.6 °F 35.1 °F 97% 29.67 in 10.0 mi SW 8.1 mph - 0.02 in Rain Light Rain
2:53 PM 35.1 °F 24.1 °F 32.0 °F 89% 29.71 in 7.0 mi West 19.6 mph 31.1 mph 0.04 in Snow Light Snow
2:59 PM 33.8 °F 23.2 °F 32.0 °F 93% 29.72 in 1.8 mi West 17.3 mph 26.5 mph 0.00 in Snow Light Snow
3:15 PM 32.0 °F 24.8 °F 32.0 °F 100% 29.73 in 2.5 mi WNW 8.1 mph - 0.02 in Snow Light Snow
3:22 PM 33.8 °F 30.8 °F 33.8 °F 100% 29.73 in 9.0 mi WNW 3.5 mph - 0.02 in   Overcast
3:30 PM 33.8 °F 27.7 °F 32.0 °F 93% 29.73 in 10.0 mi NW 6.9 mph - 0.02 in   Overcast
3:53 PM 35.1 °F 32.2 °F 33.1 °F 92% 29.75 in 10.0 mi West 3.5 mph - 0.02 in   Overcast
4:53 PM 36.0 °F 31.1 °F 32.0 °F 86% 29.79 in 10.0 mi WSW 5.8 mph - N/A   Overcast
5:53 PM 36.0 °F - 30.9 °F 82% 29.82 in 10.0 mi Calm Calm - N/A   Overcast
6:53 PM 36.0 °F 29.6 °F 30.0 °F 79% 29.86 in 10.0 mi West 8.1 mph - N/A   Overcast
7:53 PM 35.1 °F 28.6 °F 28.0 °F 76% 29.90 in 10.0 mi WSW 8.1 mph - N/A   Overcast
8:53 PM 34.0 °F 31.0 °F 27.0 °F 75% 29.93 in 10.0 mi South 3.5 mph - N/A   Overcast
9:53 PM 34.0 °F - 27.0 °F 75% 29.95 in 10.0 mi Calm Calm - N/A   Overcast
10:53 PM 34.0 °F - 28.0 °F 79% 29.97 in 10.0 mi Calm Calm - N/A   Overcast
11:53 PM 34.0 °F 28.8 °F 27.0 °F 75% 29.98 in 10.0 mi SSW 5.8 mph - N/A   Overcast